Time,TemperatureF,DewpointF,PressureIn,WindDirection,WindDirectionDegrees,WindSpeedMPH,WindSpeedGustMPH,Humidity,HourlyPrecipIn,Conditions,Clouds,dailyrainin,SoftwareType,DateUTC
2013-02-19 00:00:00,42.1,32.3,29.68,SSE,158,3.4,3.4,68,0.00,,,0.00,WUHU216HW,2013-02-19 05:00:00,
2013-02-19 00:01:00,42.1,32.3,29.69,East,90,1.8,3.4,68,0.00,,,0.00,WUHU216HW,2013-02-19 05:01:00,
2013-02-19 00:06:00,42.1,32.3,29.68,SSE,158,1.8,4.0,68,0.00,,,0.00,WUHU216HW,2013-02-19 05:06:00,
2013-02-19 00:11:00,41.9,31.8,29.68,South,180,2.2,4.9,67,0.00,,,0.00,WUHU216HW,2013-02-19 05:11:00,
2013-02-19 00:16:00,41.9,32.1,29.67,SE,135,2.0,4.9,68,0.00,,,0.00,WUHU216HW,2013-02-19 05:16:00,
2013-02-19 00:21:00,41.9,32.1,29.67,South,180,2.5,3.4,68,0.00,,,0.00,WUHU216HW,2013-02-19 05:21:00,
2013-02-19 00:26:00,41.9,32.1,29.67,South,180,3.6,4.0,68,0.00,,,0.00,WUHU216HW,2013-02-19 05:26:00,
2013-02-19 00:31:00,41.9,32.6,29.66,SE,135,3.1,3.6,69,0.00,,,0.00,WUHU216HW,2013-02-19 05:31:00,
2013-02-19 00:36:00,41.9,32.6,29.66,NNW,338,0.4,3.6,69,0.00,,,0.00,WUHU216HW,2013-02-19 05:36:00,
2013-02-19 00:41:00,42.1,32.8,29.66,SSE,158,0.7,3.6,69,0.00,,,0.00,WUHU216HW,2013-02-19 05:41:00,
2013-02-19 00:46:00,42.1,32.8,29.66,SSE,158,2.5,3.4,69,0.00,,,0.00,WUHU216HW,2013-02-19 05:46:00,
2013-02-19 00:51:00,42.3,33.0,29.65,South,180,1.6,5.4,69,0.00,,,0.00,WUHU216HW,2013-02-19 05:51:00,
2013-02-19 00:56:00,42.5,33.1,29.65,ESE,113,2.5,5.4,69,0.00,,,0.00,WUHU216HW,2013-02-19 05:56:00,
2013-02-19 01:01:00,42.5,33.1,29.65,SSW,203,4.7,4.7,69,0.00,,,0.00,WUHU216HW,2013-02-19 06:01:00,
2013-02-19 01:06:00,42.3,33.3,29.65,SSW,203,2.0,4.7,70,0.00,,,0.00,WUHU216HW,2013-02-19 06:06:00,
2013-02-19 01:11:00,42.3,33.7,29.64,ESE,113,1.6,3.6,71,0.00,,,0.00,WUHU216HW,2013-02-19 06:11:00,
2013-02-19 01:16:00,42.3,33.7,29.64,ESE,113,1.8,4.7,71,0.00,,,0.00,WUHU216HW,2013-02-19 06:16:00,
2013-02-19 01:21:00,42.1,33.5,29.64,SSW,203,2.0,4.7,71,0.00,,,0.00,WUHU216HW,2013-02-19 06:21:00,
2013-02-19 01:26:00,41.9,33.9,29.63,ESE,113,3.4,3.4,73,0.00,,,0.00,WUHU216HW,2013-02-19 06:26:00,
2013-02-19 01:31:00,41.8,34.4,29.63,SE,135,2.5,5.4,75,0.01,,,0.01,WUHU216HW,2013-02-19 06:31:00,
2013-02-19 01:36:00,41.6,34.8,29.62,NNE,23,1.1,5.4,77,0.01,,,0.01,WUHU216HW,2013-02-19 06:36:00,
2013-02-19 01:41:00,41.4,34.7,29.62,ESE,113,2.2,4.0,77,0.01,,,0.01,WUHU216HW,2013-02-19 06:41:00,
2013-02-19 01:46:00,41.4,34.7,29.61,SE,135,2.0,2.2,77,0.01,,,0.01,WUHU216HW,2013-02-19 06:46:00,
2013-02-19 01:51:00,41.4,35.3,29.61,SE,135,1.1,2.5,79,0.01,,,0.01,WUHU216HW,2013-02-19 06:51:00,
2013-02-19 01:56:00,41.4,35.6,29.60,SSE,158,1.8,2.5,80,0.01,,,0.01,WUHU216HW,2013-02-19 06:56:00,
2013-02-19 02:01:00,41.4,35.6,29.60,SSE,158,1.8,2.5,80,0.01,,,0.01,WUHU216HW,2013-02-19 07:01:00,
2013-02-19 02:06:00,41.4,36.3,29.60,SW,225,2.2,3.4,82,0.01,,,0.01,WUHU216HW,2013-02-19 07:06:00,
2013-02-19 02:11:00,41.4,36.5,29.60,SSE,158,1.8,4.7,83,0.01,,,0.01,WUHU216HW,2013-02-19 07:11:00,
2013-02-19 02:16:00,41.2,36.1,29.60,SSE,158,1.8,5.1,82,0.02,,,0.03,WUHU216HW,2013-02-19 07:16:00,
2013-02-19 02:21:00,41.0,35.9,29.59,SSW,203,4.7,5.1,82,0.02,,,0.03,WUHU216HW,2013-02-19 07:21:00,
2013-02-19 02:26:00,40.9,35.7,29.59,ESE,113,1.8,4.7,82,0.02,,,0.03,WUHU216HW,2013-02-19 07:26:00,
2013-02-19 02:31:00,40.7,35.8,29.59,SSE,158,2.5,4.3,83,0.02,,,0.03,WUHU216HW,2013-02-19 07:31:00,
2013-02-19 02:36:00,40.5,36.0,29.58,South,180,2.0,3.1,84,0.02,,,0.03,WUHU216HW,2013-02-19 07:36:00,
2013-02-19 02:41:00,40.5,36.0,29.58,SE,135,0.9,6.9,84,0.02,,,0.03,WUHU216HW,2013-02-19 07:41:00,
2013-02-19 02:46:00,40.5,36.0,29.57,ESE,113,0.4,6.9,84,0.02,,,0.03,WUHU216HW,2013-02-19 07:46:00,
2013-02-19 02:51:00,40.3,35.8,29.57,ENE,68,1.8,4.3,84,0.03,,,0.05,WUHU216HW,2013-02-19 07:51:00,
2013-02-19 02:56:00,40.3,36.1,29.57,SSW,203,1.6,3.4,85,0.03,,,0.05,WUHU216HW,2013-02-19 07:56:00,
2013-02-19 03:01:00,40.3,35.8,29.56,SE,135,0.9,5.4,84,0.04,,,0.05,WUHU216HW,2013-02-19 08:01:00,
2013-02-19 03:06:00,40.3,36.5,29.56,South,180,6.3,6.3,86,0.04,,,0.05,WUHU216HW,2013-02-19 08:06:00,
2013-02-19 03:11:00,40.3,36.5,29.56,SSE,158,6.7,6.7,86,0.05,,,0.07,WUHU216HW,2013-02-19 08:11:00,
2013-02-19 03:16:00,40.1,36.3,29.55,SSE,158,1.8,6.7,86,0.04,,,0.07,WUHU216HW,2013-02-19 08:16:00,
2013-02-19 03:21:00,40.1,36.3,29.54,SE,135,1.8,5.6,86,0.05,,,0.08,WUHU216HW,2013-02-19 08:21:00,
2013-02-19 03:26:00,40.1,36.3,29.54,NE,45,3.4,5.6,86,0.05,,,0.08,WUHU216HW,2013-02-19 08:26:00,
2013-02-19 03:31:00,40.1,36.3,29.53,WSW,248,1.1,3.6,86,0.05,,,0.08,WUHU216HW,2013-02-19 08:31:00,
2013-02-19 03:36:00,40.1,36.3,29.53,ESE,113,2.7,4.7,86,0.05,,,0.08,WUHU216HW,2013-02-19 08:36:00,
2013-02-19 03:41:00,40.1,36.3,29.52,South,180,4.0,8.5,86,0.06,,,0.10,WUHU216HW,2013-02-19 08:41:00,
2013-02-19 03:46:00,40.1,36.3,29.52,SE,135,3.4,8.5,86,0.05,,,0.10,WUHU216HW,2013-02-19 08:46:00,
2013-02-19 03:51:00,40.1,36.3,29.52,South,180,2.0,4.0,86,0.06,,,0.10,WUHU216HW,2013-02-19 08:51:00,
2013-02-19 03:56:00,40.1,36.3,29.51,SW,225,5.1,5.1,86,0.06,,,0.10,WUHU216HW,2013-02-19 08:56:00,
2013-02-19 04:01:00,40.0,36.1,29.51,SE,135,4.0,6.9,86,0.05,,,0.10,WUHU216HW,2013-02-19 09:01:00,
2013-02-19 04:06:00,40.0,36.1,29.50,SE,135,3.4,6.9,86,0.06,,,0.12,WUHU216HW,2013-02-19 09:06:00,
2013-02-19 04:11:00,40.0,36.4,29.50,SE,135,6.9,6.9,87,0.05,,,0.12,WUHU216HW,2013-02-19 09:11:00,
2013-02-19 04:16:00,40.0,36.4,29.50,NE,45,4.0,6.9,87,0.05,,,0.12,WUHU216HW,2013-02-19 09:16:00,
2013-02-19 04:21:00,40.1,36.5,29.50,SSE,158,3.1,6.3,87,0.05,,,0.12,WUHU216HW,2013-02-19 09:21:00,
2013-02-19 04:26:00,40.1,36.5,29.50,SE,135,1.3,6.3,87,0.06,,,0.14,WUHU216HW,2013-02-19 09:26:00,
2013-02-19 04:31:00,40.0,36.1,29.50,ENE,68,1.3,4.9,86,0.05,,,0.14,WUHU216HW,2013-02-19 09:31:00,
2013-02-19 04:36:00,40.1,36.5,29.49,SW,225,2.7,3.6,87,0.05,,,0.15,WUHU216HW,2013-02-19 09:36:00,
2013-02-19 04:41:00,40.1,36.5,29.49,SW,225,1.1,5.8,87,0.05,,,0.15,WUHU216HW,2013-02-19 09:41:00,
2013-02-19 04:46:00,40.1,36.5,29.49,NE,45,0.7,5.8,87,0.04,,,0.15,WUHU216HW,2013-02-19 09:46:00,
2013-02-19 04:51:00,40.1,36.5,29.49,SE,135,3.4,5.4,87,0.04,,,0.15,WUHU216HW,2013-02-19 09:51:00,
2013-02-19 04:56:00,40.3,36.7,29.48,ESE,113,0.7,3.4,87,0.04,,,0.15,WUHU216HW,2013-02-19 09:56:00,
2013-02-19 05:01:00,40.3,36.7,29.48,NNW,338,1.1,2.5,87,0.03,,,0.15,WUHU216HW,2013-02-19 10:01:00,
2013-02-19 05:06:00,40.5,37.2,29.48,ESE,113,5.1,5.1,88,0.03,,,0.15,WUHU216HW,2013-02-19 10:06:00,
2013-02-19 05:11:00,40.7,37.4,29.49,West,270,1.6,5.1,88,0.02,,,0.15,WUHU216HW,2013-02-19 10:11:00,
2013-02-19 05:16:00,40.7,37.1,29.49,SW,225,0.9,4.7,87,0.03,,,0.16,WUHU216HW,2013-02-19 10:16:00,
2013-02-19 05:21:00,40.7,37.1,29.50,East,90,3.4,4.7,87,0.02,,,0.16,WUHU216HW,2013-02-19 10:21:00,
2013-02-19 05:26:00,40.7,37.1,29.51,SSE,158,5.1,5.1,87,0.02,,,0.16,WUHU216HW,2013-02-19 10:26:00,
2013-02-19 05:31:00,40.5,36.3,29.51,WNW,293,3.6,7.4,85,0.03,,,0.16,WUHU216HW,2013-02-19 10:31:00,
2013-02-19 05:36:00,40.0,35.5,29.52,ESE,113,2.9,7.4,84,0.02,,,0.17,WUHU216HW,2013-02-19 10:36:00,
2013-02-19 05:41:00,39.2,34.6,29.53,WNW,293,4.5,6.7,83,0.02,,,0.17,WUHU216HW,2013-02-19 10:41:00,
2013-02-19 05:46:00,38.5,33.9,29.53,SW,225,1.8,6.7,83,0.02,,,0.17,WUHU216HW,2013-02-19 10:46:00,
2013-02-19 05:51:00,38.2,33.1,29.53,WNW,293,2.7,6.3,82,0.02,,,0.17,WUHU216HW,2013-02-19 10:51:00,
2013-02-19 05:56:00,37.8,32.8,29.54,NE,45,1.1,6.9,82,0.02,,,0.17,WUHU216HW,2013-02-19 10:56:00,
2013-02-19 06:01:00,37.6,32.6,29.54,West,270,0.7,6.9,82,0.02,,,0.17,WUHU216HW,2013-02-19 11:01:00,
2013-02-19 06:06:00,37.4,32.8,29.54,West,270,4.7,6.7,83,0.02,,,0.17,WUHU216HW,2013-02-19 11:06:00,
2013-02-19 06:11:00,37.1,32.4,29.54,West,270,1.8,5.4,83,0.02,,,0.17,WUHU216HW,2013-02-19 11:11:00,
2013-02-19 06:16:00,36.9,32.2,29.54,SSW,203,1.8,4.9,83,0.01,,,0.17,WUHU216HW,2013-02-19 11:16:00,
2013-02-19 06:21:00,36.7,32.1,29.55,SW,225,4.7,4.9,83,0.01,,,0.17,WUHU216HW,2013-02-19 11:21:00,
2013-02-19 06:26:00,36.5,31.9,29.55,WNW,293,4.0,5.4,83,0.01,,,0.17,WUHU216HW,2013-02-19 11:26:00,
2013-02-19 06:31:00,36.4,31.7,29.55,NW,315,2.9,6.3,83,0.00,,,0.17,WUHU216HW,2013-02-19 11:31:00,
2013-02-19 06:36:00,36.4,31.7,29.56,West,270,2.0,6.3,83,0.00,,,0.17,WUHU216HW,2013-02-19 11:36:00,
2013-02-19 06:41:00,36.2,31.5,29.57,WSW,248,2.2,6.3,83,0.00,,,0.17,WUHU216HW,2013-02-19 11:41:00,
2013-02-19 06:46:00,36.2,31.8,29.57,West,270,4.7,4.7,84,0.00,,,0.17,WUHU216HW,2013-02-19 11:46:00,
2013-02-19 06:51:00,36.0,31.6,29.57,WSW,248,2.0,5.6,84,0.00,,,0.17,WUHU216HW,2013-02-19 11:51:00,
2013-02-19 06:56:00,36.0,31.6,29.57,West,270,6.9,6.9,84,0.00,,,0.17,WUHU216HW,2013-02-19 11:56:00,
2013-02-19 07:01:00,36.0,31.6,29.57,West,270,4.9,6.9,84,0.00,,,0.17,WUHU216HW,2013-02-19 12:01:00,
2013-02-19 07:06:00,35.8,31.4,29.57,WNW,293,2.9,5.4,84,0.00,,,0.17,WUHU216HW,2013-02-19 12:06:00,
2013-02-19 07:11:00,35.6,31.5,29.58,WNW,293,2.9,5.4,85,0.00,,,0.17,WUHU216HW,2013-02-19 12:11:00,
2013-02-19 07:16:00,35.6,31.2,29.58,West,270,1.6,4.5,84,0.00,,,0.17,WUHU216HW,2013-02-19 12:16:00,
2013-02-19 07:21:00,35.3,31.1,29.58,West,270,5.6,5.6,85,0.00,,,0.17,WUHU216HW,2013-02-19 12:21:00,
2013-02-19 07:26:00,35.1,31.0,29.58,WSW,248,4.3,5.6,85,0.00,,,0.17,WUHU216HW,2013-02-19 12:26:00,
2013-02-19 07:31:00,35.1,30.7,29.59,WSW,248,2.5,4.9,84,0.00,,,0.17,WUHU216HW,2013-02-19 12:31:00,
2013-02-19 07:36:00,34.9,30.5,29.59,West,270,4.3,4.9,84,0.00,,,0.17,WUHU216HW,2013-02-19 12:36:00,
2013-02-19 07:41:00,34.9,30.5,29.59,WNW,293,2.5,4.5,84,0.00,,,0.17,WUHU216HW,2013-02-19 12:41:00,
2013-02-19 07:46:00,34.9,30.5,29.59,South,180,1.1,4.5,84,0.00,,,0.17,WUHU216HW,2013-02-19 12:46:00,
2013-02-19 07:51:00,34.9,30.5,29.60,WNW,293,4.9,4.9,84,0.00,,,0.17,WUHU216HW,2013-02-19 12:51:00,
2013-02-19 07:56:00,34.7,30.1,29.60,WNW,293,2.5,4.9,83,0.00,,,0.17,WUHU216HW,2013-02-19 12:56:00,
2013-02-19 08:01:00,34.4,29.3,29.60,SW,225,2.0,6.3,82,0.00,,,0.17,WUHU216HW,2013-02-19 13:01:00,
2013-02-19 08:06:00,34.2,29.2,29.60,SSE,158,1.1,8.5,82,0.00,,,0.17,WUHU216HW,2013-02-19 13:06:00,
2013-02-19 08:11:00,34.0,29.0,29.60,WSW,248,2.0,8.5,82,0.00,,,0.17,WUHU216HW,2013-02-19 13:11:00,
2013-02-19 08:16:00,34.0,29.0,29.61,SSW,203,2.9,5.4,82,0.00,,,0.17,WUHU216HW,2013-02-19 13:16:00,
2013-02-19 08:21:00,33.8,28.5,29.61,West,270,7.4,7.4,81,0.00,,,0.17,WUHU216HW,2013-02-19 13:21:00,
2013-02-19 08:26:00,33.7,28.4,29.61,SSW,203,1.6,7.4,81,0.00,,,0.17,WUHU216HW,2013-02-19 13:26:00,
2013-02-19 08:31:00,33.5,28.5,29.61,West,270,1.8,4.7,82,0.00,,,0.17,WUHU216HW,2013-02-19 13:31:00,
2013-02-19 08:36:00,33.5,28.5,29.61,East,90,2.9,6.3,82,0.00,,,0.17,WUHU216HW,2013-02-19 13:36:00,
2013-02-19 08:41:00,33.5,28.5,29.61,WSW,248,2.9,6.3,82,0.00,,,0.17,WUHU216HW,2013-02-19 13:41:00,
2013-02-19 08:46:00,33.1,27.9,29.62,West,270,5.6,6.3,81,0.00,,,0.17,WUHU216HW,2013-02-19 13:46:00,
2013-02-19 08:51:00,32.9,27.7,29.62,West,270,3.8,6.3,81,0.00,,,0.17,WUHU216HW,2013-02-19 13:51:00,
2013-02-19 08:56:00,32.8,27.5,29.62,West,270,4.3,6.7,81,0.00,,,0.17,WUHU216HW,2013-02-19 13:56:00,
2013-02-19 09:01:00,32.6,27.5,29.63,West,270,1.6,6.7,81,0.00,,,0.17,WUHU216HW,2013-02-19 14:01:00,
2013-02-19 09:06:00,32.4,27.3,29.63,West,270,5.1,5.1,81,0.00,,,0.17,WUHU216HW,2013-02-19 14:06:00,
2013-02-19 09:11:00,32.2,27.1,29.63,West,270,2.5,5.1,81,0.00,,,0.17,WUHU216HW,2013-02-19 14:11:00,
2013-02-19 09:16:00,32.0,26.9,29.63,West,270,4.0,5.6,81,0.00,,,0.17,WUHU216HW,2013-02-19 14:16:00,
2013-02-19 09:21:00,32.0,27.2,29.63,West,270,5.1,5.6,82,0.00,,,0.17,WUHU216HW,2013-02-19 14:21:00,
2013-02-19 09:26:00,31.9,26.7,29.63,West,270,2.5,5.4,81,0.00,,,0.17,WUHU216HW,2013-02-19 14:26:00,
2013-02-19 09:31:00,31.7,26.6,29.64,West,270,2.5,5.4,81,0.00,,,0.17,WUHU216HW,2013-02-19 14:31:00,
2013-02-19 09:36:00,31.7,26.6,29.64,West,270,5.6,5.6,81,0.00,,,0.17,WUHU216HW,2013-02-19 14:36:00,
2013-02-19 09:41:00,31.3,26.2,29.64,West,270,4.0,6.5,81,0.00,,,0.17,WUHU216HW,2013-02-19 14:41:00,
2013-02-19 09:46:00,31.0,25.8,29.64,West,270,2.7,6.5,81,0.00,,,0.17,WUHU216HW,2013-02-19 14:46:00,
2013-02-19 09:51:00,30.8,25.9,29.65,West,270,2.2,4.5,82,0.00,,,0.17,WUHU216HW,2013-02-19 14:51:00,
2013-02-19 09:56:00,30.6,25.5,29.65,West,270,5.4,6.3,81,0.00,,,0.17,WUHU216HW,2013-02-19 14:56:00,
2013-02-19 10:01:00,30.6,25.2,29.65,West,270,7.2,7.2,80,0.00,,,0.17,WUHU216HW,2013-02-19 15:01:00,
2013-02-19 10:06:00,30.2,24.2,29.65,West,270,5.4,7.6,78,0.00,,,0.17,WUHU216HW,2013-02-19 15:06:00,
2013-02-19 10:11:00,29.9,23.9,29.65,West,270,3.1,7.6,78,0.00,,,0.17,WUHU216HW,2013-02-19 15:11:00,
2013-02-19 10:16:00,30.1,24.0,29.66,West,270,3.8,8.3,78,0.00,,,0.17,WUHU216HW,2013-02-19 15:16:00,
2013-02-19 10:21:00,29.7,23.3,29.66,West,270,1.8,8.3,77,0.00,,,0.17,WUHU216HW,2013-02-19 15:21:00,
2013-02-19 10:26:00,29.7,23.3,29.66,West,270,2.0,5.8,77,0.00,,,0.17,WUHU216HW,2013-02-19 15:26:00,
2013-02-19 10:31:00,29.7,23.3,29.66,West,270,1.8,5.1,77,0.00,,,0.17,WUHU216HW,2013-02-19 15:31:00,
2013-02-19 10:36:00,29.5,23.1,29.66,West,270,1.8,5.6,77,0.00,,,0.17,WUHU216HW,2013-02-19 15:36:00,
2013-02-19 10:41:00,29.5,22.9,29.66,West,270,7.6,7.6,76,0.00,,,0.17,WUHU216HW,2013-02-19 15:41:00,
2013-02-19 10:46:00,29.3,22.4,29.66,West,270,2.5,7.6,75,0.00,,,0.17,WUHU216HW,2013-02-19 15:46:00,
2013-02-19 10:51:00,29.2,22.5,29.67,West,270,1.8,8.1,76,0.00,,,0.17,WUHU216HW,2013-02-19 15:51:00,
2013-02-19 10:56:00,29.2,22.5,29.67,West,270,3.4,8.1,76,0.00,,,0.17,WUHU216HW,2013-02-19 15:56:00,
2013-02-19 11:01:00,28.8,21.9,29.67,West,270,10.3,10.3,75,0.00,,,0.17,WUHU216HW,2013-02-19 16:01:00,
2013-02-19 11:06:00,28.4,21.5,29.67,West,270,2.5,10.3,75,0.00,,,0.17,WUHU216HW,2013-02-19 16:06:00,
2013-02-19 11:11:00,28.3,21.3,29.68,West,270,2.9,8.5,75,0.00,,,0.17,WUHU216HW,2013-02-19 16:11:00,
2013-02-19 11:16:00,28.1,20.9,29.68,West,270,3.4,6.9,74,0.00,,,0.17,WUHU216HW,2013-02-19 16:16:00,
2013-02-19 11:21:00,28.1,20.9,29.68,West,270,7.4,7.4,74,0.00,,,0.17,WUHU216HW,2013-02-19 16:21:00,
2013-02-19 11:26:00,27.7,20.2,29.68,West,270,6.0,7.4,73,0.00,,,0.17,WUHU216HW,2013-02-19 16:26:00,
2013-02-19 11:31:00,27.7,19.9,29.68,West,270,7.8,7.8,72,0.00,,,0.17,WUHU216HW,2013-02-19 16:31:00,
2013-02-19 11:36:00,27.9,20.1,29.68,West,270,6.7,7.8,72,0.00,,,0.17,WUHU216HW,2013-02-19 16:36:00,
2013-02-19 11:41:00,27.9,19.7,29.68,West,270,1.1,6.7,71,0.00,,,0.17,WUHU216HW,2013-02-19 16:41:00,
2013-02-19 11:46:00,27.7,18.9,29.69,West,270,2.7,8.3,69,0.00,,,0.17,WUHU216HW,2013-02-19 16:46:00,
2013-02-19 11:51:00,27.7,18.9,29.69,West,270,4.9,8.3,69,0.00,,,0.17,WUHU216HW,2013-02-19 16:51:00,
2013-02-19 11:56:00,27.7,18.9,29.69,West,270,3.4,9.6,69,0.00,,,0.17,WUHU216HW,2013-02-19 16:56:00,
2013-02-19 12:01:00,27.7,18.9,29.69,West,270,3.4,9.6,69,0.00,,,0.17,WUHU216HW,2013-02-19 17:01:00,
2013-02-19 12:06:00,27.9,18.7,29.69,West,270,4.7,5.4,68,0.00,,,0.17,WUHU216HW,2013-02-19 17:06:00,
2013-02-19 12:11:00,27.9,18.4,29.69,West,270,7.6,7.6,67,0.00,,,0.17,WUHU216HW,2013-02-19 17:11:00,
2013-02-19 12:16:00,27.7,17.5,29.69,West,270,4.7,7.6,65,0.00,,,0.17,WUHU216HW,2013-02-19 17:16:00,
2013-02-19 12:21:00,27.7,17.5,29.69,West,270,2.7,6.5,65,0.00,,,0.17,WUHU216HW,2013-02-19 17:21:00,
2013-02-19 12:26:00,27.7,17.8,29.69,West,270,3.1,6.9,66,0.00,,,0.17,WUHU216HW,2013-02-19 17:26:00,
2013-02-19 12:31:00,27.4,17.1,29.69,West,270,6.3,9.2,65,0.00,,,0.17,WUHU216HW,2013-02-19 17:31:00,
2013-02-19 12:36:00,27.2,16.9,29.70,West,270,3.1,9.2,65,0.00,,,0.17,WUHU216HW,2013-02-19 17:36:00,
2013-02-19 12:41:00,27.2,16.6,29.70,West,270,6.5,6.5,64,0.00,,,0.17,WUHU216HW,2013-02-19 17:41:00,
2013-02-19 12:46:00,27.0,16.0,29.70,West,270,8.5,11.9,63,0.00,,,0.17,WUHU216HW,2013-02-19 17:46:00,
2013-02-19 12:51:00,27.0,16.0,29.70,West,270,4.0,11.9,63,0.00,,,0.17,WUHU216HW,2013-02-19 17:51:00,
2013-02-19 12:56:00,27.2,16.6,29.70,West,270,4.3,8.1,64,0.00,,,0.17,WUHU216HW,2013-02-19 17:56:00,
2013-02-19 13:01:00,27.0,16.7,29.70,West,270,3.8,7.2,65,0.00,,,0.17,WUHU216HW,2013-02-19 18:01:00,
2013-02-19 13:06:00,26.6,16.0,29.70,West,270,4.3,7.2,64,0.00,,,0.17,WUHU216HW,2013-02-19 18:06:00,
2013-02-19 13:11:00,26.5,16.6,29.70,West,270,3.4,6.9,66,0.00,,,0.17,WUHU216HW,2013-02-19 18:11:00,
2013-02-19 13:16:00,26.3,17.1,29.71,West,270,2.2,8.5,68,0.00,,,0.17,WUHU216HW,2013-02-19 18:16:00,
2013-02-19 13:21:00,26.1,16.6,29.71,West,270,7.2,8.5,67,0.00,,,0.17,WUHU216HW,2013-02-19 18:21:00,
2013-02-19 13:26:00,25.9,16.4,29.71,West,270,5.8,7.6,67,0.00,,,0.17,WUHU216HW,2013-02-19 18:26:00,
2013-02-19 13:31:00,25.7,16.2,29.71,West,270,3.1,8.3,67,0.00,,,0.17,WUHU216HW,2013-02-19 18:31:00,
2013-02-19 13:36:00,25.9,16.4,29.71,West,270,3.8,8.3,67,0.00,,,0.17,WUHU216HW,2013-02-19 18:36:00,
2013-02-19 13:41:00,26.1,16.9,29.71,West,270,1.1,9.2,68,0.00,,,0.17,WUHU216HW,2013-02-19 18:41:00,
2013-02-19 13:46:00,26.1,17.6,29.71,West,270,2.5,9.2,70,0.00,,,0.17,WUHU216HW,2013-02-19 18:46:00,
2013-02-19 13:51:00,25.9,17.5,29.72,West,270,3.1,6.0,70,0.00,,,0.17,WUHU216HW,2013-02-19 18:51:00,
2013-02-19 13:56:00,25.2,16.7,29.71,West,270,3.8,8.3,70,0.00,,,0.17,WUHU216HW,2013-02-19 18:56:00,
2013-02-19 14:01:00,25.0,17.2,29.72,West,270,1.6,8.3,72,0.00,,,0.17,WUHU216HW,2013-02-19 19:01:00,
2013-02-19 14:05:00,25.2,17.4,29.72,West,270,2.5,5.1,72,0.00,,,0.17,WUHU216HW,2013-02-19 19:05:00,
2013-02-19 14:11:00,25.4,17.6,29.72,West,270,1.8,4.5,72,0.00,,,0.17,WUHU216HW,2013-02-19 19:11:00,
2013-02-19 14:16:00,25.2,17.4,29.72,West,270,4.0,4.5,72,0.00,,,0.17,WUHU216HW,2013-02-19 19:16:00,
2013-02-19 14:21:00,24.8,17.4,29.72,West,270,5.8,6.9,73,0.00,,,0.17,WUHU216HW,2013-02-19 19:21:00,
2013-02-19 14:26:00,24.8,17.6,29.72,West,270,1.8,6.9,74,0.00,,,0.17,WUHU216HW,2013-02-19 19:26:00,
2013-02-19 14:31:00,24.8,18.0,29.72,West,270,1.1,9.4,75,0.00,,,0.17,WUHU216HW,2013-02-19 19:31:00,
2013-02-19 14:36:00,24.8,18.0,29.73,West,270,2.5,9.4,75,0.00,,,0.17,WUHU216HW,2013-02-19 19:36:00,
2013-02-19 14:40:00,24.8,18.4,29.73,West,270,0.9,4.7,76,0.00,,,0.17,WUHU216HW,2013-02-19 19:40:00,
2013-02-19 14:46:00,25.0,18.5,29.73,West,270,2.5,6.3,76,0.00,,,0.17,WUHU216HW,2013-02-19 19:46:00,
2013-02-19 14:51:00,25.2,18.6,29.73,West,270,7.6,7.6,76,0.00,,,0.17,WUHU216HW,2013-02-19 19:51:00,
2013-02-19 14:56:00,25.2,18.4,29.73,West,270,3.4,7.6,75,0.00,,,0.17,WUHU216HW,2013-02-19 19:56:00,
2013-02-19 15:01:00,25.4,17.9,29.73,West,270,4.9,7.2,73,0.00,,,0.17,WUHU216HW,2013-02-19 20:01:00,
2013-02-19 15:06:00,25.0,17.2,29.73,West,270,4.5,7.2,72,0.00,,,0.17,WUHU216HW,2013-02-19 20:06:00,
2013-02-19 15:11:00,25.0,17.2,29.73,West,270,6.3,6.9,72,0.00,,,0.17,WUHU216HW,2013-02-19 20:11:00,
2013-02-19 15:16:00,25.0,16.6,29.74,West,270,5.6,8.3,70,0.00,,,0.17,WUHU216HW,2013-02-19 20:16:00,
2013-02-19 15:21:00,25.0,16.2,29.74,West,270,5.4,5.8,69,0.00,,,0.17,WUHU216HW,2013-02-19 20:21:00,
2013-02-19 15:26:00,24.8,15.7,29.75,West,270,4.7,5.8,68,0.00,,,0.17,WUHU216HW,2013-02-19 20:26:00,
2013-02-19 15:31:00,24.7,15.8,29.75,West,270,4.5,8.5,69,0.00,,,0.17,WUHU216HW,2013-02-19 20:31:00,
2013-02-19 15:36:00,24.7,15.8,29.75,West,270,2.0,8.5,69,0.00,,,0.17,WUHU216HW,2013-02-19 20:36:00,
2013-02-19 15:41:00,24.8,16.0,29.76,West,270,5.1,7.6,69,0.00,,,0.17,WUHU216HW,2013-02-19 20:41:00,
2013-02-19 15:46:00,24.8,16.0,29.76,West,270,3.1,6.5,69,0.00,,,0.17,WUHU216HW,2013-02-19 20:46:00,
2013-02-19 15:51:00,24.8,16.0,29.76,West,270,6.0,7.8,69,0.00,,,0.17,WUHU216HW,2013-02-19 20:51:00,
2013-02-19 15:56:00,24.7,15.2,29.76,West,270,4.5,7.8,67,0.00,,,0.17,WUHU216HW,2013-02-19 20:56:00,
2013-02-19 16:01:00,24.5,15.0,29.77,West,270,2.9,7.6,67,0.00,,,0.17,WUHU216HW,2013-02-19 21:01:00,
2013-02-19 16:06:00,24.7,15.2,29.77,West,270,4.7,7.6,67,0.00,,,0.17,WUHU216HW,2013-02-19 21:06:00,
2013-02-19 16:11:00,24.7,15.2,29.77,West,270,2.5,4.7,67,0.00,,,0.17,WUHU216HW,2013-02-19 21:11:00,
2013-02-19 16:16:00,24.7,15.6,29.77,West,270,4.3,4.9,68,0.00,,,0.17,WUHU216HW,2013-02-19 21:16:00,
2013-02-19 16:21:00,24.7,15.6,29.78,West,270,4.7,4.9,68,0.00,,,0.17,WUHU216HW,2013-02-19 21:21:00,
2013-02-19 16:26:00,24.7,15.6,29.78,West,270,2.5,9.8,68,0.00,,,0.17,WUHU216HW,2013-02-19 21:26:00,
2013-02-19 16:31:00,24.7,15.2,29.78,West,270,0.9,9.8,67,0.00,,,0.17,WUHU216HW,2013-02-19 21:31:00,
2013-02-19 16:36:00,24.7,15.2,29.78,West,270,5.8,5.8,67,0.00,,,0.17,WUHU216HW,2013-02-19 21:36:00,
2013-02-19 16:41:00,24.7,15.2,29.79,West,270,2.2,6.9,67,0.00,,,0.17,WUHU216HW,2013-02-19 21:41:00,
2013-02-19 16:46:00,24.7,15.2,29.79,West,270,1.6,6.9,67,0.00,,,0.17,WUHU216HW,2013-02-19 21:46:00,
2013-02-19 16:51:00,24.5,15.0,29.79,West,270,4.5,4.5,67,0.00,,,0.17,WUHU216HW,2013-02-19 21:51:00,
2013-02-19 16:56:00,24.1,14.7,29.79,West,270,2.2,5.8,67,0.00,,,0.17,WUHU216HW,2013-02-19 21:56:00,
2013-02-19 17:01:00,24.3,14.9,29.80,West,270,4.0,6.0,67,0.00,,,0.17,WUHU216HW,2013-02-19 22:01:00,
2013-02-19 17:06:00,24.3,14.9,29.80,West,270,5.4,6.0,67,0.00,,,0.17,WUHU216HW,2013-02-19 22:06:00,
2013-02-19 17:11:00,24.3,15.6,29.81,West,270,9.2,9.2,69,0.00,,,0.17,WUHU216HW,2013-02-19 22:11:00,
2013-02-19 17:16:00,24.1,15.4,29.81,West,270,1.6,9.2,69,0.00,,,0.17,WUHU216HW,2013-02-19 22:16:00,
2013-02-19 17:21:00,23.9,15.2,29.81,West,270,3.8,7.2,69,0.00,,,0.17,WUHU216HW,2013-02-19 22:21:00,
2013-02-19 17:26:00,23.8,14.7,29.81,West,270,5.8,6.3,68,0.00,,,0.17,WUHU216HW,2013-02-19 22:26:00,
2013-02-19 17:31:00,23.8,15.4,29.82,West,270,1.1,6.3,70,0.00,,,0.17,WUHU216HW,2013-02-19 22:31:00,
2013-02-19 17:36:00,23.6,15.6,29.82,West,270,3.1,5.8,71,0.00,,,0.17,WUHU216HW,2013-02-19 22:36:00,
2013-02-19 17:41:00,23.4,15.7,29.83,West,270,4.5,7.8,72,0.00,,,0.17,WUHU216HW,2013-02-19 22:41:00,
2013-02-19 17:46:00,23.2,16.1,29.83,West,270,4.3,7.8,74,0.00,,,0.17,WUHU216HW,2013-02-19 22:46:00,
2013-02-19 17:51:00,22.9,16.4,29.83,West,270,3.1,6.9,76,0.00,,,0.17,WUHU216HW,2013-02-19 22:51:00,
2013-02-19 17:56:00,22.7,16.2,29.84,West,270,1.1,4.7,76,0.00,,,0.17,WUHU216HW,2013-02-19 22:56:00,
2013-02-19 18:01:00,22.7,16.2,29.84,West,270,3.6,4.7,76,0.00,,,0.17,WUHU216HW,2013-02-19 23:01:00,
2013-02-19 18:06:00,22.5,16.4,29.84,West,270,2.2,5.4,77,0.00,,,0.17,WUHU216HW,2013-02-19 23:06:00,
2013-02-19 18:11:00,22.3,16.2,29.85,West,270,5.6,7.2,77,0.00,,,0.17,WUHU216HW,2013-02-19 23:11:00,
2013-02-19 18:16:00,22.3,16.2,29.85,West,270,2.9,7.2,77,0.00,,,0.17,WUHU216HW,2013-02-19 23:16:00,
2013-02-19 18:21:00,22.1,16.0,29.85,West,270,1.1,4.9,77,0.00,,,0.17,WUHU216HW,2013-02-19 23:21:00,
2013-02-19 18:26:00,22.3,16.2,29.86,West,270,0.9,5.4,77,0.00,,,0.17,WUHU216HW,2013-02-19 23:26:00,
2013-02-19 18:31:00,22.0,15.9,29.86,West,270,3.4,5.4,77,0.00,,,0.17,WUHU216HW,2013-02-19 23:31:00,
2013-02-19 18:36:00,22.0,15.5,29.86,West,270,5.6,5.6,76,0.00,,,0.17,WUHU216HW,2013-02-19 23:36:00,
2013-02-19 18:41:00,22.0,15.2,29.87,West,270,4.3,6.0,75,0.00,,,0.17,WUHU216HW,2013-02-19 23:41:00,
2013-02-19 18:46:00,21.8,14.8,29.87,West,270,4.5,6.5,74,0.00,,,0.17,WUHU216HW,2013-02-19 23:46:00,
2013-02-19 18:51:00,21.8,15.0,29.87,West,270,2.5,6.5,75,0.00,,,0.17,WUHU216HW,2013-02-19 23:51:00,
2013-02-19 18:56:00,21.8,14.8,29.88,West,270,5.4,5.6,74,0.00,,,0.17,WUHU216HW,2013-02-19 23:56:00,
2013-02-19 19:01:00,21.4,14.4,29.88,West,270,6.9,6.9,74,0.00,,,0.17,WUHU216HW,2013-02-20 00:01:00,
2013-02-19 19:06:00,21.6,14.2,29.88,West,270,2.7,6.9,73,0.00,,,0.17,WUHU216HW,2013-02-20 00:06:00,
2013-02-19 19:11:00,21.6,14.0,29.88,West,270,1.3,4.0,72,0.00,,,0.17,WUHU216HW,2013-02-20 00:11:00,
2013-02-19 19:16:00,21.6,14.0,29.88,West,270,2.5,7.6,72,0.00,,,0.17,WUHU216HW,2013-02-20 00:16:00,
2013-02-19 19:21:00,21.6,14.0,29.89,West,270,1.8,7.6,72,0.00,,,0.17,WUHU216HW,2013-02-20 00:21:00,
2013-02-19 19:26:00,21.4,12.4,29.89,West,270,5.8,6.9,68,0.00,,,0.17,WUHU216HW,2013-02-20 00:26:00,
2013-02-19 19:31:00,21.4,12.2,29.89,West,270,3.4,7.6,67,0.00,,,0.17,WUHU216HW,2013-02-20 00:31:00,
2013-02-19 19:36:00,21.2,11.6,29.89,West,270,3.4,7.6,66,0.00,,,0.17,WUHU216HW,2013-02-20 00:36:00,
2013-02-19 19:41:00,21.2,11.6,29.89,West,270,2.5,5.1,66,0.00,,,0.17,WUHU216HW,2013-02-20 00:41:00,
2013-02-19 19:46:00,21.2,12.2,29.89,West,270,3.1,4.0,68,0.00,,,0.17,WUHU216HW,2013-02-20 00:46:00,
2013-02-19 19:51:00,21.1,12.1,29.89,West,270,2.5,6.5,68,0.00,,,0.17,WUHU216HW,2013-02-20 00:51:00,
2013-02-19 19:56:00,20.9,12.2,29.90,West,270,3.6,8.5,69,0.00,,,0.17,WUHU216HW,2013-02-20 00:56:00,
2013-02-19 20:01:00,20.7,12.1,29.90,West,270,2.9,8.5,69,0.00,,,0.17,WUHU216HW,2013-02-20 01:01:00,
2013-02-19 20:06:00,20.7,12.1,29.90,West,270,2.2,5.8,69,0.00,,,0.17,WUHU216HW,2013-02-20 01:06:00,
2013-02-19 20:11:00,20.5,11.3,29.91,West,270,1.8,7.2,67,0.00,,,0.17,WUHU216HW,2013-02-20 01:11:00,
2013-02-19 20:16:00,20.5,11.3,29.91,West,270,3.6,7.2,67,0.00,,,0.17,WUHU216HW,2013-02-20 01:16:00,
2013-02-19 20:21:00,20.5,11.5,29.91,West,270,4.9,5.6,68,0.00,,,0.17,WUHU216HW,2013-02-20 01:21:00,
2013-02-19 20:26:00,20.3,11.3,29.91,West,270,2.0,5.6,68,0.00,,,0.17,WUHU216HW,2013-02-20 01:26:00,
2013-02-19 20:31:00,20.2,11.2,29.91,West,270,1.6,5.6,68,0.00,,,0.17,WUHU216HW,2013-02-20 01:31:00,
2013-02-19 20:36:00,20.2,11.5,29.91,West,270,4.0,4.7,69,0.00,,,0.17,WUHU216HW,2013-02-20 01:36:00,
2013-02-19 20:41:00,20.0,11.0,29.91,West,270,3.4,4.7,68,0.00,,,0.17,WUHU216HW,2013-02-20 01:41:00,
2013-02-19 20:46:00,19.8,10.8,29.92,West,270,4.0,6.9,68,0.00,,,0.17,WUHU216HW,2013-02-20 01:46:00,
2013-02-19 20:51:00,19.8,10.8,29.92,West,270,2.2,6.9,68,0.00,,,0.17,WUHU216HW,2013-02-20 01:51:00,
2013-02-19 20:56:00,19.8,10.8,29.92,West,270,2.7,5.6,68,0.00,,,0.17,WUHU216HW,2013-02-20 01:56:00,
2013-02-19 21:01:00,19.8,10.8,29.92,West,270,5.4,5.6,68,0.00,,,0.17,WUHU216HW,2013-02-20 02:01:00,
2013-02-19 21:06:00,19.8,10.5,29.92,West,270,2.5,5.4,67,0.00,,,0.17,WUHU216HW,2013-02-20 02:06:00,
2013-02-19 21:11:00,19.8,10.2,29.92,West,270,4.9,5.1,66,0.00,,,0.17,WUHU216HW,2013-02-20 02:11:00,
2013-02-19 21:16:00,19.8,10.2,29.92,West,270,2.0,5.4,66,0.00,,,0.17,WUHU216HW,2013-02-20 02:16:00,
2013-02-19 21:21:00,19.6,9.6,29.93,West,270,3.4,5.4,65,0.00,,,0.17,WUHU216HW,2013-02-20 02:21:00,
2013-02-19 21:26:00,19.4,9.5,29.93,West,270,1.1,8.9,65,0.00,,,0.17,WUHU216HW,2013-02-20 02:26:00,
2013-02-19 21:31:00,19.4,9.5,29.93,West,270,1.8,8.9,65,0.00,,,0.17,WUHU216HW,2013-02-20 02:31:00,
2013-02-19 21:36:00,19.4,9.5,29.93,West,270,4.9,4.9,65,0.00,,,0.17,WUHU216HW,2013-02-20 02:36:00,
2013-02-19 21:41:00,19.4,9.5,29.93,West,270,1.8,5.4,65,0.00,,,0.17,WUHU216HW,2013-02-20 02:41:00,
2013-02-19 21:46:00,19.4,9.5,29.93,West,270,1.8,6.3,65,0.00,,,0.17,WUHU216HW,2013-02-20 02:46:00,
2013-02-19 21:51:00,19.4,9.8,29.93,West,270,3.8,8.7,66,0.00,,,0.17,WUHU216HW,2013-02-20 02:51:00,
2013-02-19 21:56:00,19.1,9.8,29.93,West,270,2.9,8.7,67,0.00,,,0.17,WUHU216HW,2013-02-20 02:56:00,
2013-02-19 22:01:00,19.1,10.2,29.93,West,270,4.0,6.0,68,0.00,,,0.17,WUHU216HW,2013-02-20 03:01:00,
2013-02-19 22:06:00,19.1,10.5,29.93,West,270,1.3,4.0,69,0.00,,,0.17,WUHU216HW,2013-02-20 03:06:00,
2013-02-19 22:11:00,19.3,10.6,29.94,West,270,1.3,3.1,69,0.00,,,0.17,WUHU216HW,2013-02-20 03:11:00,
2013-02-19 22:16:00,19.3,10.6,29.94,West,270,6.5,6.5,69,0.00,,,0.17,WUHU216HW,2013-02-20 03:16:00,
2013-02-19 22:21:00,19.1,10.5,29.94,West,270,2.5,6.5,69,0.00,,,0.17,WUHU216HW,2013-02-20 03:21:00,
2013-02-19 22:26:00,19.1,10.5,29.94,West,270,0.7,4.9,69,0.00,,,0.17,WUHU216HW,2013-02-20 03:26:00,
2013-02-19 22:31:00,18.9,10.4,29.94,West,270,4.5,4.9,69,0.00,,,0.17,WUHU216HW,2013-02-20 03:31:00,
2013-02-19 22:36:00,18.7,9.8,29.94,West,270,2.5,4.5,68,0.00,,,0.17,WUHU216HW,2013-02-20 03:36:00,
2013-02-19 22:41:00,18.9,10.0,29.94,West,270,2.2,4.3,68,0.00,,,0.17,WUHU216HW,2013-02-20 03:41:00,
2013-02-19 22:46:00,19.1,10.2,29.95,West,270,2.5,3.1,68,0.00,,,0.17,WUHU216HW,2013-02-20 03:46:00,
2013-02-19 22:51:00,18.9,10.0,29.95,West,270,2.2,7.4,68,0.00,,,0.17,WUHU216HW,2013-02-20 03:51:00,
2013-02-19 22:56:00,19.1,10.2,29.95,West,270,3.6,7.4,68,0.00,,,0.17,WUHU216HW,2013-02-20 03:56:00,
2013-02-19 23:01:00,19.1,10.2,29.95,West,270,5.4,5.4,68,0.00,,,0.17,WUHU216HW,2013-02-20 04:01:00,
2013-02-19 23:06:00,19.1,10.2,29.95,West,270,2.9,5.4,68,0.00,,,0.17,WUHU216HW,2013-02-20 04:06:00,
2013-02-19 23:11:00,19.1,10.2,29.95,West,270,1.6,7.8,68,0.00,,,0.17,WUHU216HW,2013-02-20 04:11:00,
2013-02-19 23:16:00,19.1,10.5,29.95,West,270,4.0,7.8,69,0.00,,,0.17,WUHU216HW,2013-02-20 04:16:00,
2013-02-19 23:21:00,18.9,10.4,29.95,West,270,3.6,4.9,69,0.00,,,0.17,WUHU216HW,2013-02-20 04:21:00,
2013-02-19 23:26:00,18.9,10.4,29.95,West,270,1.6,4.9,69,0.00,,,0.17,WUHU216HW,2013-02-20 04:26:00,
2013-02-19 23:31:00,18.9,10.4,29.95,West,270,2.5,4.7,69,0.00,,,0.17,WUHU216HW,2013-02-20 04:31:00,
2013-02-19 23:36:00,18.9,10.4,29.95,West,270,3.1,5.6,69,0.00,,,0.17,WUHU216HW,2013-02-20 04:36:00,
2013-02-19 23:41:00,18.9,10.4,29.95,West,270,0.9,5.6,69,0.00,,,0.17,WUHU216HW,2013-02-20 04:41:00,
2013-02-19 23:46:00,18.9,10.4,29.95,West,270,0.4,4.0,69,0.00,,,0.17,WUHU216HW,2013-02-20 04:46:00,
2013-02-19 23:51:00,18.9,10.4,29.96,West,270,4.3,5.6,69,0.00,,,0.17,WUHU216HW,2013-02-20 04:51:00,
2013-02-19 23:56:00,18.9,10.4,29.96,West,270,2.5,5.6,69,0.00,,,0.17,WUHU216HW,2013-02-20 04:56:00,